This demonstration page uses our WeatherBlox Daily Observations layout. Learn more.

Left ArrowRight Arrow

53.62937, 11.41316

Hourly Observations for December 12, 2018

Temp ( °F °C ) Dew Point ( °F °C ) Humidity (%) Winds ( mph kmh ) Pressure ( in mb ) Visibility ( mi km ) Precip ( " mm )
6:50 am 06:50 Mostly Cloudy 39 4 34 1 81 81 N 6 9 30.27 1025 30 48 N/A
7:20 am 07:20 Mostly Cloudy 39 4 36 2 87 87 N 5 7 30.27 1025 30 48 N/A
7:50 am 07:50 Partly Cloudy 39 4 36 2 87 87 N 6 9 30.27 1025 30 48 N/A
8:20 am 08:20 Mostly Clear 39 4 36 2 87 87 N 5 7 30.27 1025 30 48 N/A
8:50 am 08:50 Mostly Cloudy 39 4 36 2 87 87 N 7 11 30.30 1026 30 48 N/A
9:20 am 09:20 Mostly Cloudy 39 4 36 2 87 87 NNE 7 11 30.30 1026 30 48 N/A
9:50 am 09:50 Mostly Cloudy 41 5 37 3 87 87 NNE 6 9 30.30 1026 30 48 N/A
10:20 am 10:20 Mostly Cloudy 41 5 37 3 87 87 NE 9 15 30.30 1026 30 48 N/A
10:50 am 10:50 Mostly Cloudy 41 5 36 2 81 81 NE 10 17 30.33 1027 30 48 N/A
11:20 am 11:20 Mostly Cloudy 41 5 37 3 87 87 NE 9 15 30.33 1027 30 48 N/A
11:50 am 11:50 Mostly Cloudy 41 5 37 3 87 87 NE 8 13 30.33 1027 30 48 N/A
12:20 pm 12:20 Partly Cloudy with Light Rain 41 5 37 3 87 87 NE 9 15 30.33 1027 30 48 N/A
12:50 pm 12:50 Partly Cloudy 41 5 36 2 81 81 NE 8 13 30.33 1027 30 48 N/A
1:20 pm 13:20 Partly Cloudy 41 5 36 2 81 81 NE 9 15 30.33 1027 30 48 N/A
1:50 pm 13:50 Partly Cloudy 41 5 34 1 76 76 NE 7 11 30.33 1027 30 48 N/A
2:20 pm 14:20 Mostly Cloudy 41 5 34 1 76 76 NE 10 17 30.33 1027 30 48 N/A
2:50 pm 14:50 Partly Cloudy 39 4 34 1 81 81 NE 7 11 30.33 1027 30 48 N/A
3:20 pm 15:20 Partly Cloudy 39 4 34 1 81 81 NE 10 17 30.33 1027 30 48 N/A
3:50 pm 15:50 Mostly Sunny 39 4 34 1 81 81 NNE 8 13 30.33 1027 30 48 N/A
4:20 pm 16:20 Mostly Cloudy 39 4 34 1 81 81 NNE 8 13 30.33 1027 30 48 N/A
4:50 pm 16:50 Partly Cloudy 39 4 36 2 87 87 NNE 12 19 30.33 1027 30 48 N/A
5:20 pm 17:20 Partly Cloudy 37 3 36 2 93 93 NNE 7 11 30.33 1027 30 48 N/A
5:50 pm 17:50 Partly Cloudy 37 3 36 2 93 93 NNE 8 13 30.33 1027 30 48 N/A
6:20 pm 18:20 Partly Cloudy 37 3 36 2 93 93 NNE 8 13 30.33 1027 30 48 N/A
6:50 pm 18:50 Partly Cloudy 39 4 36 2 87 87 NNE 8 13 30.33 1027 30 48 N/A

Powered by AerisWeather